RH
6 5 5 5 5 5 5 5 4 4 4 4 3 3 3 3 3 3 3 3 4 4 5 6 6 5 3 2 5 11 18 24 31 37 36 37 39 37 40 42 44 48 47 46 46 42 41 43 42 41 40 41 44 46 49 53 55 59 60 62 59 53 50 55 62 64 71 73 69 75 83 84 82 81 77 76 77 77 77 76 75 70 69 67 51 39 34 34
6 6 6 5 5 5 5 5 5 4 4 4 4 3 3 3 3 3 3 3 3 4 4 6 6 6 5 2 3 7 14 20 26 34 37 37 36 35 39 38 40 45 45 46 45 42 43 42 39 38 38 39 41 43 46 48 53 58 58 60 58 51 47 50 57 60 67 72 69 72 78 79 78 76 73 70 68 72 76 73 71 66 67 65 49 40 37 36
7 7 6 6 6 6 5 5 5 5 5 4 4 4 4 3 4 3 3 3 3 3 3 4 6 6 6 4 2 3 9 15 21 31 35 36 37 35 37 37 39 43 45 47 45 44 43 40 37 37 38 38 40 42 45 47 51 55 56 59 58 52 44 44 53 56 62 71 70 70 72 71 71 68 65 64 62 65 68 65 64 60 61 61 52 47 43 41
9 9 8 8 7 6 6 6 5 5 5 5 5 4 4 3 4 4 3 3 3 3 3 3 4 6 6 6 4 2 6 11 17 26 32 36 38 34 36 37 39 43 46 47 45 43 40 36 36 37 37 37 39 42 45 48 50 51 54 59 58 54 45 40 48 54 58 66 68 67 67 66 65 62 58 58 57 58 57 54 52 51 55 57 53 52 47 44
12 11 11 10 9 8 7 7 6 6 6 5 5 5 4 4 4 4 4 4 3 3 3 3 3 5 6 6 5 3 3 7 14 23 29 36 36 32 36 37 40 45 46 45 43 42 39 35 35 35 36 36 39 41 43 47 48 48 52 57 58 55 47 38 42 51 56 60 64 65 65 65 64 59 57 59 59 56 54 51 46 43 46 47 47 50 47 46
14 14 13 12 11 10 9 8 7 6 6 6 5 5 5 5 4 4 4 4 4 3 3 3 3 4 5 6 6 4 3 4 11 20 27 35 34 32 35 37 42 46 44 43 42 41 38 34 34 34 35 36 39 41 41 44 46 47 49 55 58 53 47 40 38 45 52 58 63 63 64 65 65 61 60 63 62 58 55 53 50 45 43 41 42 46 47 47
17 17 16 15 14 13 11 10 9 8 7 6 6 6 6 5 5 4 5 4 4 4 3 3 3 3 4 6 6 5 3 3 9 16 24 33 33 31 34 38 43 45 42 41 41 39 35 33 34 33 34 36 38 39 37 40 44 45 46 52 57 52 45 42 39 41 47 54 58 60 62 65 66 63 63 64 61 57 54 52 52 50 47 44 42 45 47 50
20 19 19 18 17 15 14 12 11 9 8 7 6 6 6 6 6 5 5 5 4 4 4 3 3 3 3 5 6 6 4 3 7 14 22 31 33 30 33 39 43 43 41 40 40 38 35 33 32 33 35 35 35 34 33 36 38 38 40 47 54 52 47 44 41 39 44 49 53 56 59 62 64 62 63 62 58 55 52 51 51 51 49 45 44 45 46 48
21 21 20 20 19 18 16 15 13 11 10 9 7 6 6 6 6 6 6 5 5 5 4 4 3 3 3 4 5 6 4 3 6 12 20 29 32 30 32 38 41 42 40 40 40 38 35 33 32 33 33 32 31 31 32 34 32 30 33 41 50 54 50 46 43 40 42 48 52 56 55 57 61 61 63 61 57 55 51 50 51 51 50 46 44 45 45 44
22 21 21 21 20 19 18 16 15 14 12 11 9 7 6 7 7 7 6 6 5 5 5 5 4 3 3 3 5 5 5 3 5 10 18 27 32 31 32 36 40 40 39 39 39 38 36 34 32 32 31 30 30 30 31 31 29 28 33 39 46 53 51 47 47 43 43 47 52 55 53 54 55 56 61 59 56 56 52 50 49 49 49 47 45 44 45 44
22 22 22 21 21 20 19 17 16 16 14 13 10 8 7 7 7 7 7 7 6 6 6 5 5 4 3 3 4 5 5 4 4 8 15 24 31 33 32 33 37 38 37 38 38 38 37 34 32 31 29 29 29 29 29 29 28 28 34 39 42 48 48 47 48 45 46 49 50 55 54 52 53 54 58 56 55 56 54 52 50 48 48 46 45 44 46 47
22 22 22 22 22 20 19 18 18 17 16 15 12 10 9 8 8 8 8 8 7 6 6 6 5 4 3 3 3 5 7 5 4 6 12 22 30 34 33 31 33 35 35 37 38 37 36 34 32 31 30 29 29 29 28 28 27 28 32 38 41 43 44 47 48 43 46 48 48 57 55 46 50 53 52 51 53 55 54 54 53 51 50 48 48 47 47 49
22 22 23 23 22 20 19 18 18 18 17 16 14 12 11 10 8 8 8 8 8 7 7 7 6 5 3 3 3 4 8 7 4 5 9 18 27 33 34 32 31 33 34 35 37 37 35 32 30 30 30 29 29 29 28 27 27 27 30 35 38 40 42 46 47 43 46 49 46 54 55 46 47 48 46 49 51 51 52 52 53 53 53 53 52 50 50 50
23 22 23 24 23 20 19 19 18 18 17 17 15 15 14 12 10 9 9 9 8 8 7 7 7 6 4 3 3 3 7 10 7 5 6 12 21 30 33 32 31 32 32 34 35 35 34 31 30 30 29 28 28 28 27 27 26 27 28 31 33 36 39 41 42 42 45 49 45 47 53 51 48 46 45 48 50 50 51 52 51 52 55 55 55 53 53 52
24 24 23 23 23 21 19 19 18 17 17 17 16 16 16 14 12 10 10 9 9 8 8 8 7 6 5 3 3 2 6 12 11 8 6 6 14 25 31 32 31 32 32 32 33 32 31 30 30 29 28 27 27 26 26 26 26 27 28 29 30 30 33 33 35 40 45 49 46 44 48 49 47 46 45 47 49 51 52 55 56 58 60 59 58 57 56 54
27 26 24 23 23 22 20 19 18 17 16 17 16 17 17 16 14 12 11 10 9 9 8 9 8 6 6 4 3 2 5 13 13 10 7 5 8 17 27 31 31 32 32 31 31 30 29 30 30 28 27 27 26 26 26 26 25 26 25 25 25 24 25 26 29 35 43 45 41 40 41 46 47 45 46 48 50 53 54 58 64 68 70 67 64 61 58 57
30 28 25 24 23 22 21 20 18 17 16 17 16 17 18 17 16 14 12 10 9 10 10 10 9 7 6 4 3 2 5 13 14 10 7 6 5 10 20 28 29 31 31 30 28 28 28 29 30 28 27 27 26 26 25 25 24 23 23 22 21 21 22 23 24 28 37 39 36 37 36 42 48 45 46 49 50 53 56 59 65 71 76 76 72 65 58 58
34 30 27 25 24 22 21 20 19 17 17 17 16 18 19 18 17 15 13 12 10 11 10 10 9 7 7 5 4 3 4 10 12 10 8 6 4 6 13 23 28 28 27 28 27 26 27 29 29 29 27 26 25 25 24 25 24 22 22 21 20 21 21 21 21 23 30 34 33 34 33 38 47 46 44 46 50 53 57 62 66 71 76 80 79 69 61 59
36 34 29 26 25 23 22 21 19 18 17 17 17 18 19 19 19 16 14 13 12 12 10 11 9 7 8 7 5 4 4 6 8 9 8 5 4 4 7 17 25 25 23 25 26 25 25 27 28 27 26 25 25 24 24 24 23 22 21 20 20 20 19 20 20 21 26 31 30 31 33 38 46 48 45 45 49 52 55 60 63 67 71 75 78 74 69 66
36 36 32 28 25 24 23 21 20 18 17 18 18 18 20 21 20 18 17 15 14 13 11 11 9 7 10 9 6 6 5 5 6 8 8 6 4 3 5 11 20 23 21 23 25 24 23 25 27 25 25 25 24 23 23 23 22 21 19 19 20 19 19 19 20 21 24 28 29 30 33 36 42 46 45 46 48 50 52 56 59 63 67 69 73 76 74 72
34 36 35 31 26 25 24 22 21 19 18 18 18 19 20 21 21 20 19 16 15 13 11 13 10 8 12 12 9 9 8 7 7 7 8 7 5 3 3 7 16 21 20 22 23 23 23 24 24 25 25 24 23 22 22 22 20 19 18 18 19 18 19 19 20 22 23 26 29 31 32 35 40 43 44 46 49 50 51 56 61 63 65 67 70 74 75 73
32 35 36 34 28 25 24 23 21 19 18 18 18 19 20 21 22 21 20 17 17 14 12 12 10 11 14 14 12 11 12 11 9 7 7 6 5 4 4 6 12 17 19 21 22 22 22 22 22 23 24 23 22 22 20 20 19 18 17 17 18 17 17 18 20 23 24 27 30 31 31 34 38 41 42 46 50 52 52 54 59 62 64 65 65 68 71 73
32 34 36 36 30 26 25 24 21 19 18 18 18 19 20 21 21 21 19 17 17 15 13 12 11 16 18 16 15 14 15 15 11 9 8 6 5 4 4 6 10 14 17 19 20 20 20 20 21 20 21 22 21 20 19 19 17 17 17 16 16 16 16 16 19 23 25 27 31 31 31 33 37 38 39 43 47 51 53 52 55 59 62 65 64 64 68 72
33 33 35 36 31 26 26 25 22 19 18 18 18 18 19 21 20 20 19 16 15 13 13 11 11 18 20 17 17 17 17 16 14 13 9 7 5 5 7 7 9 13 15 17 17 18 18 18 19 19 19 20 19 19 18 16 16 17 16 16 15 15 16 15 17 23 26 27 30 32 32 30 32 35 36 39 44 48 51 52 53 57 62 66 65 66 70 73
33 32 34 35 31 27 25 25 22 19 18 17 18 18 19 21 21 20 17 14 12 12 12 11 14 19 19 19 19 19 20 16 15 15 11 8 8 9 10 8 10 13 15 15 14 15 17 16 16 17 17 17 18 17 16 15 16 16 16 16 16 15 15 15 16 21 25 28 30 33 37 32 28 32 35 36 40 45 48 50 52 55 60 63 65 68 72 76
33 31 33 34 31 27 25 24 22 19 17 17 18 19 20 22 21 17 16 16 14 13 12 12 18 21 19 20 21 20 22 19 16 16 12 12 14 15 13 10 11 14 15 14 14 13 14 14 14 16 17 17 18 16 15 15 16 16 15 16 15 15 15 15 15 19 23 25 27 33 38 34 27 29 33 34 36 40 43 46 48 50 54 59 64 68 72 78
33 30 31 33 29 26 26 24 22 18 17 18 18 20 22 22 18 15 23 32 26 19 15 14 20 22 20 23 21 19 21 20 18 16 14 15 18 17 17 15 12 14 16 15 15 13 10 12 14 17 17 16 16 15 14 15 15 16 16 16 15 14 15 14 14 16 19 20 22 29 35 34 29 27 30 32 33 37 38 41 44 45 50 56 62 68 73 79
34 29 29 33 29 26 27 25 22 18 17 18 18 21 23 20 17 20 36 44 33 22 18 14 16 19 21 23 21 18 18 17 17 18 19 21 21 20 20 17 13 15 16 15 15 12 8 12 16 17 17 15 14 13 13 14 15 16 16 16 15 15 14 14 14 14 17 19 20 25 32 36 31 26 28 30 31 35 35 37 40 44 49 56 62 69 74 79
33 29 27 32 29 25 27 26 22 18 18 18 19 23 22 16 18 28 40 39 26 18 15 13 14 17 20 21 19 18 17 16 18 20 23 24 22 22 21 16 15 18 18 16 15 12 11 14 16 16 14 13 13 13 14 15 14 15 15 15 15 15 14 13 13 13 15 17 18 23 32 37 31 25 26 28 29 31 31 32 35 42 49 55 63 69 74 80
31 28 25 31 29 26 27 25 20 18 17 18 20 21 18 16 22 32 40 33 21 16 15 15 15 15 18 18 17 18 18 18 20 21 23 22 20 21 21 17 17 19 18 16 14 13 14 15 14 14 12 12 13 14 14 14 14 13 13 14 15 15 14 13 14 14 17 20 21 23 30 34 31 26 25 27 29 29 31 32 32 39 48 55 63 68 74 80
28 26 24 29 29 26 27 24 19 18 17 19 21 19 17 21 28 34 36 30 23 20 17 17 15 12 15 17 17 19 20 19 21 22 22 21 20 21 20 18 18 18 17 15 14 14 15 14 13 12 12 12 12 13 13 13 13 12 12 14 13 12 12 12 14 16 21 28 28 23 25 31 32 27 25 28 28 28 33 34 32 39 49 57 63 68 75 79
25 24 24 29 28 26 26 22 18 17 18 20 19 16 17 22 28 32 31 28 26 22 18 18 15 12 14 16 17 20 20 20 21 23 22 21 21 20 18 18 17 17 16 15 15 15 13 12 12 12 12 12 12 13 12 12 13 12 13 14 12 15 16 17 24 23 21 28 30 25 27 33 32 27 25 28 28 27 30 30 29 35 47 57 63 66 72 76
25 22 23 29 27 26 26 21 17 17 19 20 18 19 24 26 29 33 30 27 26 22 19 18 15 14 15 16 18 20 20 20 20 21 21 19 19 18 18 18 16 16 16 14 14 15 13 12 12 11 12 12 12 13 12 12 12 12 14 12 12 21 24 26 35 30 22 27 31 30 31 31 28 25 25 28 28 26 27 27 26 31 42 53 60 63 67 69
25 21 24 30 27 26 26 19 16 18 19 19 18 24 30 29 28 30 27 25 25 23 20 18 16 16 17 17 19 20 20 21 20 20 18 18 19 18 17 17 16 15 16 14 13 14 13 12 11 11 12 12 12 12 11 12 12 12 14 13 11 15 16 20 27 19 17 26 29 27 29 27 25 23 24 28 28 27 27 25 25 30 38 47 54 59 60 60
25 21 24 30 27 26 24 17 15 18 19 18 20 26 29 27 26 27 24 24 24 23 21 19 17 17 18 18 18 19 20 21 21 20 18 17 17 16 15 16 16 16 16 15 14 14 13 11 11 11 11 12 12 11 11 11 12 12 13 13 12 11 9 13 17 10 13 26 30 27 26 24 23 22 24 27 26 27 27 23 24 29 35 42 47 50 50 49
26 21 24 30 27 25 23 17 15 18 19 18 20 25 25 24 25 25 24 22 21 21 21 20 18 17 18 18 18 19 20 20 21 21 20 18 16 15 14 14 16 17 16 16 14 13 12 11 11 11 11 12 11 11 12 11 11 12 12 13 11 10 10 10 12 15 21 29 30 27 26 25 22 21 24 26 25 27 26 21 21 26 31 36 37 36 37 38
27 21 25 30 27 25 22 17 15 18 19 18 19 22 22 22 24 25 23 20 19 18 19 20 18 17 18 17 18 19 19 20 21 21 22 21 19 16 13 13 16 16 15 15 14 12 11 10 11 11 10 11 11 10 11 11 11 10 11 12 11 10 11 8 12 23 32 37 35 29 29 29 24 22 21 21 25 27 23 19 18 21 25 28 29 28 30 32
30 22 25 30 28 25 22 18 15 17 18 18 19 20 21 23 24 24 22 19 17 16 17 17 16 17 18 18 18 18 18 20 21 21 23 23 19 14 11 12 15 16 15 16 15 13 11 11 11 11 10 10 10 10 11 10 10 10 9 10 9 9 10 8 11 20 32 49 49 34 30 29 22 21 19 19 25 24 19 16 17 18 19 21 24 26 28 29
31 24 26 30 27 24 23 19 16 16 17 18 19 20 22 24 25 23 21 19 17 15 16 17 15 16 17 18 18 17 17 18 19 21 21 20 17 12 10 11 13 15 16 16 15 13 12 12 12 11 10 10 9 9 10 10 10 10 9 10 9 9 9 8 10 12 28 57 59 38 31 27 18 18 19 20 24 21 17 17 17 17 17 19 22 25 28 28
32 26 27 30 26 25 24 20 16 15 17 18 18 20 23 24 24 22 21 20 19 18 18 20 20 19 18 17 17 16 17 17 17 18 18 16 14 10 8 10 12 14 16 16 15 13 11 13 13 11 9 10 10 9 9 9 10 10 10 10 9 9 8 8 10 8 20 50 61 49 38 23 14 17 20 21 23 20 18 20 20 18 16 18 21 23 25 24
33 28 31 32 29 26 24 21 17 15 17 18 18 20 23 24 23 22 21 22 23 23 23 24 25 25 23 21 18 15 15 16 16 16 16 15 14 10 6 8 9 10 12 13 13 12 11 12 13 11 10 10 10 10 9 9 10 10 10 10 9 9 9 9 11 10 14 31 45 44 33 18 13 18 19 21 23 23 22 22 22 20 17 18 19 20 22 22
35 32 35 36 33 29 24 21 17 15 17 18 19 22 24 23 22 21 21 23 24 27 28 28 28 27 25 25 23 20 16 15 15 14 15 15 13 11 9 9 9 9 9 10 11 11 11 11 12 12 11 11 11 11 11 11 10 10 10 10 9 9 8 8 10 10 12 19 26 29 25 16 15 19 19 20 23 25 24 23 24 24 19 17 17 18 20 23
37 36 38 37 35 30 24 20 17 15 17 19 21 25 25 23 22 21 21 22 22 25 27 27 27 27 26 25 24 22 19 16 15 13 13 14 13 12 11 11 10 10 10 10 10 11 11 11 12 11 11 12 12 12 12 11 11 11 10 10 9 9 8 8 8 7 9 14 20 27 27 18 14 19 20 19 22 25 25 25 26 27 24 20 17 18 20 22
39 37 38 37 34 29 24 20 19 16 16 21 26 28 25 23 23 22 21 21 21 22 24 26 28 28 28 24 20 19 18 16 15 13 13 13 12 12 11 10 11 11 10 10 10 10 11 11 12 12 14 15 15 16 15 14 13 13 12 11 9 8 8 7 7 7 8 12 17 25 27 17 14 19 19 18 20 23 24 26 27 28 30 25 19 17 19 20
40 37 37 37 32 29 26 24 23 20 19 26 31 31 26 24 23 22 21 21 22 22 22 25 29 29 28 24 18 15 14 13 12 12 13 13 12 12 11 10 11 11 10 10 10 10 11 11 11 12 17 22 21 20 17 15 15 14 13 12 9 8 8 7 8 8 9 12 15 19 19 14 14 18 18 18 19 20 22 25 25 27 28 24 19 18 20 20
41 38 36 36 33 31 29 29 30 26 25 31 33 31 29 26 23 22 22 21 22 22 21 23 27 29 28 24 17 12 13 12 11 11 12 12 12 11 11 11 11 11 11 10 10 11 11 12 12 12 16 19 19 17 15 15 15 14 13 13 10 9 9 8 8 9 9 11 14 14 13 13 14 16 17 18 18 19 21 22 23 26 23 19 19 20 21 22
41 39 37 36 36 35 33 35 36 31 31 35 33 31 30 26 24 23 23 22 21 22 22 22 24 27 28 25 18 14 14 13 11 12 12 12 12 11 11 11 11 12 12 11 13 14 12 14 17 17 17 18 17 17 16 15 15 14 14 13 11 11 10 9 9 9 8 9 11 11 11 12 14 14 16 18 18 20 21 22 24 25 20 18 21 22 21 22
41 41 40 38 41 40 36 39 41 35 35 38 35 33 31 27 26 25 23 22 21 22 24 23 24 27 28 28 21 15 15 15 14 16 14 12 12 12 12 13 13 13 13 13 17 17 15 19 21 21 20 20 19 18 17 17 17 16 15 15 14 12 11 11 10 9 9 9 9 9 10 11 12 13 15 17 19 20 22 24 25 23 19 20 22 20 20 23
42 43 42 41 44 43 38 42 45 40 40 42 39 36 34 30 28 27 24 23 21 22 24 23 25 27 28 29 23 16 16 17 18 19 17 15 16 15 16 17 16 15 14 15 19 20 19 23 25 23 22 22 21 21 20 18 17 18 18 17 17 15 13 12 12 10 10 10 9 9 9 9 10 12 13 15 19 22 23 25 24 19 20 23 21 17 19 25
42 43 43 41 45 45 40 43 47 44 43 45 43 40 37 34 32 30 28 26 25 27 27 25 26 28 29 31 26 19 20 21 20 20 19 18 18 18 18 18 17 18 17 16 20 20 20 26 28 24 24 26 25 24 23 19 17 19 20 18 18 17 15 13 12 12 10 9 9 9 8 9 10 11 13 14 18 21 24 25 21 18 22 25 21 17 20 26
44 43 43 42 45 47 43 45 49 46 44 45 45 42 39 38 38 37 34 31 31 33 32 29 30 30 30 32 28 24 26 27 23 21 19 18 18 17 17 16 16 18 17 17 20 20 21 25 27 24 26 30 27 24 23 20 17 18 20 19 18 16 16 15 13 12 10 9 9 8 8 10 10 9 12 14 17 22 24 23 19 21 25 25 21 20 23 30
45 44 43 42 46 48 46 47 49 48 45 45 46 44 40 40 42 43 41 39 38 38 35 32 33 31 30 32 32 30 32 32 30 27 23 20 20 19 17 16 16 16 16 17 19 19 20 22 23 25 27 28 27 24 20 18 20 23 24 23 21 21 22 21 17 14 12 11 10 9 11 12 11 10 13 16 19 24 24 21 22 25 26 24 22 24 26 32
Wind_Speed
10 10 10 10 10 9 9 10 10 10 10 9 9 9 7 6 5 5 5 6 7 8 8 7 7 6 6 10 15 17 18 17 16 16 14 13 13 13 12 10 8 5 3 2 5 5 6 8 10 12 13 14 13 13 14 15 15 15 15 16 17 19 18 16 14 13 11 10 13 16 17 17 17 16 13 10 9 9 11 12 10 9 10 11 12 12 11 11
10 11 11 11 11 10 10 10 10 10 10 10 9 8 8 6 5 5 5 6 7 7 8 8 8 7 6 8 13 18 19 18 18 16 14 14 14 12 12 10 8 6 3 2 3 3 5 8 11 12 12 13 11 10 12 13 13 13 13 14 16 17 17 15 13 13 12 11 13 17 17 17 15 13 11 9 10 10 10 9 8 9 10 12 13 12 9 9
10 10 11 12 12 11 11 11 10 10 10 10 10 9 8 6 5 5 5 5 6 7 8 9 9 9 8 7 10 16 19 20 19 16 15 15 14 13 12 10 8 6 3 1 2 3 5 8 11 12 12 12 11 10 11 11 11 11 12 13 15 15 16 15 12 13 12 11 12 15 17 16 15 13 12 11 11 12 9 6 6 7 8 11 12 11 9 9
10 10 11 12 12 12 12 12 11 11 11 11 11 10 8 7 5 5 6 5 6 7 7 9 10 10 9 8 8 12 18 20 18 18 17 16 15 15 13 10 9 7 5 5 5 4 5 8 10 10 11 11 10 11 10 9 10 11 11 11 12 12 15 17 13 11 12 11 11 13 14 14 14 13 13 13 13 13 12 9 9 9 8 10 9 8 8 8
10 10 10 11 12 12 13 12 12 12 12 12 12 11 9 8 6 5 6 5 5 6 7 8 10 10 10 10 8 10 15 18 19 20 19 17 16 15 13 11 10 9 8 8 5 3 4 7 9 9 10 10 11 11 9 8 10 11 10 9 10 11 14 17 15 10 10 10 10 11 11 12 13 13 14 13 11 11 11 11 11 11 9 9 7 6 7 8
10 10 10 10 11 12 13 13 13 13 13 13 12 12 11 9 7 6 6 6 5 6 7 8 9 11 11 11 10 10 13 15 20 22 20 18 16 16 14 12 12 11 11 8 4 2 3 6 8 8 8 9 10 11 10 9 9 11 11 10 9 10 12 16 16 12 9 8 8 8 8 10 11 12 12 11 10 9 10 10 11 13 13 10 4 4 7 7
11 11 11 11 11 11 12 13 13 13 13 14 13 13 12 10 9 7 6 6 5 5 7 8 9 10 11 13 12 11 13 14 20 23 21 20 18 17 15 14 14 13 11 8 4 3 3 4 6 7 7 7 8 8 9 9 9 10 11 10 8 9 12 14 15 13 10 7 6 6 5 7 10 11 10 9 10 10 10 9 10 12 14 13 5 3 8 9
11 11 11 11 11 11 11 12 13 13 14 14 14 13 13 12 10 8 7 7 6 5 6 7 8 10 11 13 13 12 13 14 20 25 23 21 20 18 18 17 16 13 10 8 6 3 1 3 4 5 4 5 6 7 8 8 9 11 10 8 7 7 10 11 13 13 11 8 6 4 4 6 8 9 9 8 10 11 11 10 9 9 10 9 5 2 7 10
11 11 11 11 11 11 11 12 12 13 14 14 14 14 13 13 11 9 8 7 7 6 6 7 8 10 12 13 14 13 12 14 20 26 25 23 21 21 20 18 16 13 10 9 7 4 1 2 3 2 2 3 5 7 6 6 11 13 10 6 5 5 7 9 10 11 10 8 6 3 2 4 6 7 8 9 9 10 10 9 8 6 6 6 5 2 5 8
11 11 11 11 11 11 11 11 12 13 13 14 14 14 13 13 12 10 9 8 7 7 6 7 7 9 11 13 14 14 14 14 20 26 26 25 23 22 22 21 17 14 11 10 8 5 4 4 2 2 2 2 3 5 4 6 11 12 8 5 4 4 5 7 8 9 8 7 6 3 2 1 3 5 7 8 8 8 8 8 7 5 3 4 5 2 3 6
11 11 11 11 11 11 11 11 11 12 13 14 14 14 13 13 12 11 10 9 8 8 7 7 7 8 11 14 15 15 15 15 19 26 28 27 25 24 24 23 20 16 14 11 8 7 8 7 4 3 4 2 2 4 4 6 11 11 7 4 5 6 6 6 6 6 6 5 6 5 4 2 2 3 6 8 8 8 7 7 6 6 5 4 5 4 3 3
12 11 11 11 11 11 11 11 11 12 13 13 13 13 13 13 12 11 10 9 8 8 8 7 7 8 10 13 15 15 16 16 17 24 29 28 26 25 25 24 21 18 16 13 10 10 10 8 6 5 6 3 1 3 5 7 11 11 8 6 6 8 9 7 5 6 4 3 5 6 6 3 1 1 3 6 8 9 8 7 7 6 7 6 6 6 6 4
12 11 11 11 12 11 11 11 11 11 12 12 12 12 12 12 12 11 10 9 9 8 8 8 8 9 10 13 16 17 16 15 15 19 26 29 28 26 25 24 22 19 18 15 12 13 12 10 8 5 6 4 2 3 5 9 12 11 9 8 8 11 10 8 6 5 4 3 3 5 6 5 2 1 2 3 6 7 7 7 7 7 7 8 7 7 6 6
12 12 11 11 11 11 11 11 11 11 11 11 12 11 11 12 11 10 10 9 9 8 8 8 9 9 11 13 15 16 15 14 14 16 21 27 29 27 26 25 22 19 18 16 14 16 15 13 9 6 6 5 4 5 5 10 12 10 10 10 11 12 12 11 9 6 5 4 5 5 5 5 2 1 2 1 4 5 5 6 6 6 6 6 6 6 6 6
13 13 12 11 11 11 11 11 11 10 10 10 11 10 10 10 9 9 9 9 9 8 8 8 9 10 11 12 13 14 14 14 15 17 19 25 29 29 27 26 25 21 18 16 16 17 16 14 11 7 7 7 6 6 5 9 10 9 10 11 14 15 14 14 13 8 5 6 7 5 3 5 4 2 2 2 1 5 5 6 5 4 4 4 5 5 5 5
14 14 13 11 11 11 11 10 10 10 9 10 10 9 9 9 8 8 9 9 8 7 7 8 9 10 11 11 12 14 16 16 16 17 19 23 28 31 29 28 26 23 19 17 17 17 16 14 11 9 8 9 8 7 5 6 7 8 11 13 16 17 17 16 14 10 7 8 7 6 3 4 4 4 1 2 1 3 5 6 5 3 3 4 4 5 5 6
14 14 13 12 11 11 10 10 10 9 8 9 9 8 8 8 7 8 8 8 7 7 7 8 9 10 10 10 12 16 19 20 20 17 18 22 25 29 31 29 27 25 22 19 19 17 16 14 12 11 11 10 9 7 4 4 7 10 13 15 17 19 20 19 16 12 10 9 6 6 3 1 3 4 2 0 2 3 3 4 4 3 3 4 4 5 5 6
15 14 13 12 11 11 11 10 11 10 8 8 8 7 7 7 7 8 7 7 8 8 8 8 10 10 10 11 13 17 21 24 23 19 19 23 24 27 31 31 29 26 24 22 20 17 16 15 14 14 13 11 8 6 5 5 10 13 16 18 20 20 18 18 16 10 8 8 6 4 2 4 2 3 3 0 3 4 4 4 4 4 4 4 5 5 4 5
15 15 14 13 11 11 11 10 10 10 7 7 8 7 7 7 7 7 7 7 8 9 9 8 10 10 10 12 14 18 22 24 23 21 20 22 23 25 29 32 31 28 26 23 20 18 17 16 15 16 15 10 6 6 7 8 12 14 17 19 21 19 15 13 10 3 3 5 3 2 4 6 2 1 2 0 2 4 4 4 4 4 4 3 4 4 4 4
15 16 15 14 12 10 11 11 10 9 7 7 7 7 7 7 7 7 6 7 8 9 9 8 10 12 12 13 15 17 19 20 22 21 19 21 22 23 28 32 33 30 27 25 21 19 17 17 18 18 14 9 6 7 8 10 12 14 16 18 17 15 12 7 2 4 4 2 3 3 3 4 2 1 2 1 2 4 3 3 2 2 2 2 2 4 5 4
15 16 16 16 14 10 10 11 10 9 7 6 6 6 6 6 7 6 5 7 8 8 10 10 11 13 13 13 15 15 16 17 20 21 20 21 22 23 27 32 34 32 29 26 23 20 18 19 20 18 13 10 8 8 9 10 12 13 15 17 13 8 8 6 4 6 5 3 4 4 3 3 2 2 3 2 2 4 5 4 2 2 1 0 1 3 5 5
14 15 16 17 15 11 9 10 10 9 7 6 6 5 5 5 5 4 4 5 6 8 11 12 12 14 15 14 15 15 15 16 18 21 21 22 22 23 26 31 34 32 29 27 24 21 20 21 21 16 12 11 10 9 10 11 12 12 13 14 9 3 4 5 3 5 5 3 3 4 4 3 2 4 4 4 3 3 4 3 3 2 2 1 1 2 4 5
14 14 16 17 16 12 9 9 10 8 6 5 5 5 4 4 3 4 4 4 5 6 9 12 14 17 17 15 17 16 15 15 17 20 22 21 22 23 25 30 33 32 30 27 24 23 21 21 20 16 11 11 11 9 10 10 9 9 10 11 7 4 3 3 1 4 5 3 4 5 5 4 4 6 6 6 6 5 3 2 2 1 1 0 0 1 1 3
14 14 15 16 15 12 8 8 9 8 6 5 4 4 4 3 3 2 2 3 6 5 8 13 17 20 18 17 18 16 15 15 15 18 20 21 22 23 25 27 30 31 30 27 24 24 23 18 16 14 10 11 11 9 7 8 6 4 8 10 8 6 5 4 1 5 5 4 5 4 5 5 6 6 5 6 7 6 4 3 2 1 1 2 2 3 3 1
15 13 15 15 14 12 8 7 8 7 5 4 4 3 2 2 2 2 0 1 4 6 10 14 17 20 19 17 17 15 15 14 14 15 18 21 22 22 23 25 28 29 29 27 24 25 25 18 12 10 8 8 10 8 4 7 7 3 7 9 9 9 8 8 4 3 5 5 6 5 4 3 4 4 4 6 6 5 4 3 2 2 3 3 3 4 4 2
16 13 14 15 13 10 8 7 7 6 4 4 4 3 2 1 1 2 1 1 3 7 10 15 18 19 19 16 14 14 14 13 14 15 17 20 20 20 22 24 26 27 27 26 23 24 24 18 12 9 7 7 8 6 3 7 7 4 6 8 9 9 9 9 7 1 4 3 5 8 6 4 4 2 4 7 6 5 4 4 4 3 3 3 3 3 3 2
16 13 14 15 12 8 8 6 6 6 4 3 3 1 1 0 1 3 2 2 4 7 10 15 19 18 18 15 12 11 10 12 15 15 16 18 19 18 20 22 23 24 25 23 22 23 21 16 11 8 6 6 7 4 4 5 5 4 6 7 8 9 9 10 9 3 2 3 4 9 11 7 7 4 4 7 7 6 6 5 4 3 2 2 2 2 2 2
16 13 13 14 12 7 6 6 6 5 4 3 2 0 0 1 2 2 2 2 3 6 9 15 18 17 18 16 13 9 7 12 16 15 16 17 17 17 18 20 20 20 23 22 22 20 16 14 11 8 7 6 4 3 5 4 3 3 3 6 7 8 8 11 11 6 3 5 6 9 12 8 7 4 3 5 5 6 6 5 4 2 1 0 1 1 1 1
16 14 12 13 12 7 5 6 5 4 4 3 2 0 1 2 2 2 2 2 5 6 10 14 13 16 19 17 14 9 8 13 14 14 17 17 16 16 16 18 17 17 19 21 21 17 14 13 10 8 7 4 1 2 3 3 2 2 4 7 8 8 9 11 11 6 5 6 5 7 12 8 5 4 1 4 5 4 4 4 3 2 1 2 2 2 1 1
16 14 13 12 11 7 5 5 4 4 3 2 1 2 3 3 1 1 1 3 5 7 10 11 9 15 21 18 14 11 13 15 12 14 18 17 17 16 14 16 16 15 14 16 19 17 13 11 8 8 7 4 2 1 1 2 2 3 6 8 8 8 9 9 7 3 6 5 5 4 12 10 2 3 3 4 4 4 3 5 5 1 2 4 4 4 4 4
15 14 13 12 10 7 4 3 3 3 2 2 2 4 5 5 5 3 1 4 3 6 10 9 8 15 20 18 15 15 17 15 12 16 19 17 17 16 15 16 15 13 11 13 16 16 13 10 9 10 7 4 4 4 3 2 4 6 8 9 8 7 4 3 3 6 5 2 6 4 11 14 5 2 3 2 1 3 3 4 6 3 4 5 6 5 5 6
14 14 13 11 9 6 4 3 2 2 3 3 4 5 4 4 7 7 3 3 1 4 8 8 10 15 17 16 14 15 17 13 12 16 18 17 19 18 17 16 15 12 10 12 11 11 12 11 10 11 8 6 6 5 5 5 6 7 8 8 5 5 3 2 0 3 1 1 5 4 8 12 8 7 2 0 1 3 4 5 5 3 5 7 8 7 7 7
13 13 12 11 8 5 4 2 1 2 4 5 6 7 5 3 5 8 6 2 2 4 6 7 11 15 16 16 14 15 16 13 11 15 17 17 19 19 16 14 14 10 6 10 10 6 8 11 12 12 9 9 9 7 7 6 7 7 6 4 2 3 3 2 2 2 2 1 4 3 6 6 6 7 5 2 2 4 5 6 5 2 4 7 9 8 7 7
12 11 11 10 8 5 3 2 2 4 6 7 7 7 7 6 7 9 9 6 5 5 6 9 12 15 16 15 15 16 15 13 13 16 18 18 18 19 18 15 15 11 6 9 9 4 5 8 11 13 10 9 10 9 7 6 7 7 6 3 2 1 3 1 2 2 2 2 1 2 4 3 3 4 4 3 2 3 5 7 5 3 2 6 7 7 6 5
11 10 10 9 7 4 3 1 3 5 7 8 9 8 6 7 9 11 11 8 8 5 6 9 12 16 17 14 14 15 13 12 15 17 17 18 17 18 19 17 17 16 10 9 8 6 5 5 7 11 10 9 9 8 8 9 8 7 7 6 3 0 3 3 1 3 3 2 1 3 3 5 5 4 4 3 1 3 5 7 5 4 3 5 6 6 5 4
10 9 9 8 6 4 2 1 3 7 9 10 8 8 8 9 11 12 10 7 6 4 7 10 12 17 18 15 13 14 12 12 17 18 16 16 16 16 18 18 17 16 13 9 6 6 7 4 5 9 10 11 12 10 10 12 9 6 7 8 4 2 1 2 2 2 1 1 2 5 5 4 5 5 5 4 1 2 4 6 6 6 5 5 6 6 5 5
9 9 8 7 5 3 2 1 4 8 11 10 7 6 7 9 13 13 9 7 6 7 9 9 13 17 18 16 14 14 12 11 17 18 15 15 14 15 18 18 17 15 14 10 5 4 6 4 3 7 11 15 16 13 11 11 10 8 7 7 7 5 3 1 2 2 2 1 3 6 5 4 5 3 3 3 0 3 5 7 7 7 7 8 7 7 7 6
8 8 7 5 3 2 2 1 4 9 11 9 7 7 8 10 13 14 10 7 7 9 9 7 14 18 17 15 14 14 12 12 16 17 15 13 12 16 21 20 18 16 14 11 6 3 3 2 1 3 8 14 14 11 11 9 9 8 5 6 7 4 2 3 3 1 1 0 3 5 6 7 8 3 1 1 2 5 6 7 8 8 9 10 9 9 8 6
7 7 6 4 2 1 2 1 3 9 12 10 7 7 9 11 13 13 11 8 7 8 8 6 11 15 15 15 13 14 14 12 14 15 15 13 11 16 22 20 19 17 14 13 10 4 2 2 2 3 4 11 11 10 10 9 10 8 6 6 6 3 2 3 2 1 2 2 1 3 4 5 7 3 4 4 4 7 7 6 8 9 9 10 10 10 9 7
7 6 5 4 1 2 2 1 4 9 12 10 7 8 10 10 12 13 12 11 8 5 4 3 5 7 11 13 13 14 15 13 13 13 13 13 10 14 20 20 19 18 15 14 13 8 5 4 2 3 7 9 8 10 10 9 10 10 8 8 6 5 3 2 1 2 1 3 3 2 3 4 3 4 4 5 6 8 7 5 6 8 9 10 10 10 10 9
7 6 5 4 2 2 3 2 4 9 12 10 7 7 8 10 11 12 13 13 10 8 6 4 3 3 4 7 11 14 15 15 14 13 13 13 9 10 16 18 17 17 16 16 15 12 9 6 3 3 5 4 3 7 8 7 8 9 9 7 6 6 4 2 1 3 3 4 3 4 2 3 3 6 7 7 7 8 8 5 5 6 8 9 10 11 11 11
7 6 5 4 3 3 3 3 4 9 13 11 7 6 6 9 10 11 12 12 11 9 8 8 7 5 3 3 8 13 16 17 16 14 13 12 10 9 11 14 15 15 16 15 14 12 9 7 4 2 3 2 0 5 8 8 8 7 8 7 5 5 5 3 3 4 5 5 5 4 2 1 6 8 9 10 8 7 8 6 4 4 6 9 9 10 11 10
7 6 5 4 4 4 4 4 6 10 14 12 7 5 6 8 9 9 9 10 9 7 8 9 8 7 5 3 6 10 14 15 15 15 12 10 10 8 9 14 16 15 15 13 13 12 10 9 5 1 4 5 4 4 5 6 6 5 5 5 5 5 5 5 5 4 4 5 6 4 2 2 8 9 9 11 9 7 7 6 3 3 4 6 7 9 10 9
7 7 6 5 4 4 5 6 8 10 14 13 7 5 7 9 8 8 8 8 7 5 6 9 9 8 9 5 3 7 11 11 11 13 12 10 10 8 9 15 17 16 15 10 9 13 12 9 6 1 4 5 5 6 7 8 5 2 0 1 4 6 4 4 6 6 5 6 6 5 3 5 7 10 10 10 10 8 6 5 4 3 2 3 5 8 10 10
8 8 6 5 5 5 6 7 9 11 13 13 8 6 8 9 7 7 7 6 6 4 4 8 9 8 9 7 3 7 8 8 8 9 9 8 7 6 11 17 17 16 14 8 7 13 12 10 8 4 3 5 2 2 4 6 6 4 4 3 3 6 4 4 7 7 6 6 7 6 4 4 5 10 11 11 11 10 7 5 4 2 1 2 5 9 11 11
8 8 8 7 6 6 7 8 9 11 13 13 10 8 8 8 7 6 5 5 4 4 3 6 7 6 6 6 6 10 9 6 7 8 8 7 7 9 15 18 14 11 10 9 9 12 11 9 9 6 6 10 8 6 6 6 6 6 6 5 4 3 2 4 7 5 2 5 8 6 6 4 4 9 11 12 13 11 7 4 2 2 1 5 7 9 11 11
8 8 8 8 7 7 7 8 9 12 13 12 10 10 10 10 9 6 4 4 4 3 3 4 4 5 6 7 6 11 10 7 7 10 11 9 11 16 18 15 12 9 10 12 12 13 12 12 11 10 12 13 11 10 8 7 7 8 8 7 7 6 4 4 6 4 3 4 5 3 5 5 5 8 10 12 13 11 8 4 3 1 3 7 8 9 10 11
8 9 9 9 8 7 7 8 9 11 12 10 10 10 11 11 10 8 6 4 4 3 4 4 4 5 8 7 6 12 13 11 12 16 17 17 17 19 18 15 14 13 13 15 15 15 15 15 15 14 15 14 12 12 10 10 13 13 12 10 9 8 6 3 4 6 5 4 4 2 4 6 5 7 10 10 11 10 7 4 3 2 5 6 8 11 12 11
9 10 10 11 9 7 8 9 9 9 9 9 9 9 9 10 10 9 8 6 5 5 4 4 5 6 8 7 6 14 18 18 19 21 21 20 19 19 18 17 15 13 12 15 16 16 15 18 17 17 18 17 14 15 13 10 12 14 15 13 10 8 6 4 4 5 5 5 4 4 6 7 5 6 8 9 10 10 7 6 5 3 4 5 9 12 12 11
10 11 11 12 11 9 9 11 10 9 8 8 8 7 8 9 9 8 9 8 7 7 6 6 7 7 8 6 5 14 20 21 20 20 20 20 20 19 17 15 15 13 12 14 15 14 15 21 21 17 19 19 17 18 16 12 10 13 16 14 11 9 6 4 3 2 2 3 2 5 8 9 7 6 6 7 9 10 8 8 6 3 2 5 8 11 11 10
11 12 12 13 13 11 11 12 11 9 9 8 7 7 8 10 10 10 10 10 9 9 8 8 9 9 8 6 8 15 19 20 19 18 17 18 18 17 15 14 13 12 11 13 14 14 14 18 20 18 18 19 18 16 15 13 11 11 14 14 12 10 8 5 3 1 2 1 3 5 10 12 10 8 5 6 10 11 9 8 5 2 2 4 8 10 10 8
12 13 13 14 14 13 13 14 13 10 9 9 8 6 7 9 11 11 11 11 10 9 9 9 9 9 7 6 10 14 16 16 18 17 16 16 15 14 14 13 12 11 10 11 13 13 12 14 17 16 14 15 14 10 7 6 5 7 11 14 14 12 10 7 3 1 1 2 2 3 8 10 10 8 6 9 14 13 9 7 4 1 2 5 8 9 8 6
Wind_Direction
311 310 309 308 306 305 302 301 301 301 300 299 298 299 298 294 283 266 257 251 244 239 234 226 221 222 203 194 195 196 199 200 198 191 176 169 177 181 180 182 176 184 223 319 332 343 18 26 21 15 13 7 358 355 357 358 358 1 10 16 22 27 28 28 31 40 63 83 93 104 118 131 135 139 147 148 139 136 138 139 142 136 132 149 169 176 171 160
312 310 308 307 305 304 302 300 299 299 298 298 296 295 295 295 288 272 258 252 247 238 234 228 222 221 213 198 192 196 198 200 201 189 176 181 185 185 187 183 174 194 223 309 327 3 28 21 18 15 16 11 359 355 357 357 357 357 3 17 25 28 29 29 32 41 64 90 97 107 116 122 126 128 132 133 130 131 138 143 146 140 134 149 166 171 167 157
313 311 308 306 305 303 301 299 297 296 296 295 294 292 290 290 287 279 262 250 249 242 234 227 224 218 215 206 192 195 196 201 199 182 182 188 186 192 192 183 179 194 201 125 100 73 34 17 16 16 23 16 3 2 4 1 3 5 3 14 25 28 29 28 33 42 61 89 100 109 117 118 117 117 117 119 123 124 126 126 126 125 130 146 160 168 168 161
312 310 308 306 304 302 300 298 296 295 293 293 293 292 289 286 282 278 269 253 245 244 235 227 224 217 214 209 197 194 195 200 193 181 190 189 187 198 193 188 186 181 160 131 120 81 26 18 20 20 25 23 12 7 10 2 360 11 9 12 24 29 29 29 32 41 56 80 99 110 117 116 113 112 110 110 110 112 116 114 108 99 110 136 146 161 173 170
310 308 306 304 301 300 299 297 295 294 292 291 290 290 289 286 280 273 271 261 242 242 238 228 224 218 213 209 204 194 193 198 190 185 193 188 190 199 194 193 184 163 145 137 129 76 17 14 20 24 26 26 23 11 5 358 356 10 12 13 26 33 33 30 31 39 51 67 95 109 116 118 115 112 105 99 94 98 111 121 129 124 119 129 124 136 161 168
311 308 305 302 299 297 296 295 293 291 290 288 288 288 288 286 282 273 269 266 247 238 236 229 223 218 212 208 207 197 190 192 188 188 192 188 192 198 195 190 176 157 147 146 143 98 29 12 12 19 24 22 22 15 2 351 350 359 6 7 18 36 40 34 32 37 49 65 93 101 112 123 123 124 115 108 109 108 113 122 141 146 148 159 150 121 137 152
314 312 308 304 301 297 293 292 290 289 287 285 284 284 285 285 283 277 268 267 254 238 235 230 222 217 211 207 208 200 190 187 186 189 191 188 191 196 193 184 172 160 154 154 143 116 47 20 9 10 23 22 18 12 360 353 350 352 0 358 357 29 41 37 36 35 44 61 84 90 108 131 136 140 139 136 136 130 127 130 137 142 154 176 199 141 137 142
317 315 312 309 305 300 295 291 288 286 284 282 280 279 282 282 281 278 271 267 258 241 233 230 223 215 210 205 207 203 193 187 185 188 190 187 189 192 191 184 175 167 163 160 155 154 43 9 6 14 31 31 15 360 357 6 7 355 353 349 339 11 31 34 38 38 43 51 63 91 121 150 157 156 161 164 155 146 145 148 146 139 151 179 210 151 144 149
317 316 315 314 309 305 299 294 290 286 282 279 278 275 276 278 278 277 271 267 260 247 233 230 224 214 209 205 206 203 195 190 186 187 189 187 188 190 190 189 182 177 173 172 174 180 216 322 342 7 17 23 5 355 5 22 12 352 338 335 326 345 16 27 35 37 43 49 52 69 118 170 177 172 176 182 173 162 159 163 163 153 153 183 210 144 129 151
317 317 317 316 314 310 304 299 294 289 285 280 277 274 272 273 274 274 269 264 258 250 237 228 224 213 208 205 204 201 196 192 187 187 189 188 189 191 192 194 192 187 182 183 183 188 231 260 280 292 299 339 352 358 17 12 1 347 327 315 300 308 353 14 26 33 38 44 48 35 3 214 203 194 196 198 189 181 180 185 191 193 188 192 203 194 131 150
318 318 318 318 317 313 309 304 298 293 289 283 279 276 272 271 270 270 267 261 254 249 241 229 224 215 207 204 204 201 197 193 188 188 189 189 190 191 193 197 198 194 190 192 189 204 231 241 247 267 289 309 2 11 7 346 348 347 333 324 307 303 330 353 9 21 28 34 32 18 1 325 257 209 218 222 205 200 205 208 214 220 220 212 210 223 225 170
318 319 319 321 319 316 313 307 301 296 292 287 283 279 276 272 268 267 265 261 252 247 242 230 223 216 207 204 203 201 198 196 191 190 191 190 192 193 194 196 198 198 196 197 203 220 229 237 244 262 288 289 341 356 346 332 338 345 338 334 319 312 323 331 339 352 358 8 13 13 14 13 16 166 238 239 218 212 214 218 222 221 222 225 228 231 230 213
318 318 320 323 321 319 316 310 304 297 293 292 288 284 279 273 268 267 264 261 254 245 241 232 222 216 208 203 204 201 195 194 191 192 194 193 194 195 195 196 197 198 199 200 213 227 231 241 243 257 282 269 257 299 324 326 329 338 335 332 321 314 323 324 320 329 324 320 345 358 22 33 35 9 315 264 231 219 215 220 223 217 222 228 236 239 231 227
318 318 321 325 322 319 318 315 307 299 297 295 291 288 282 276 273 269 264 260 254 245 238 232 223 217 209 206 207 201 189 188 188 188 195 196 196 197 197 198 198 199 200 203 218 229 233 241 240 248 268 263 265 267 299 322 323 331 330 326 325 322 324 322 317 315 299 297 314 327 22 40 19 332 355 321 231 216 205 214 223 218 224 233 241 246 242 236
321 320 322 324 319 317 320 318 310 302 298 294 292 290 285 282 278 268 261 255 251 246 236 231 226 218 214 210 207 197 182 182 186 187 191 195 197 198 199 200 201 202 202 206 220 230 234 239 239 241 254 262 266 260 292 321 321 335 339 333 333 329 325 322 318 315 288 277 291 298 8 33 10 4 5 353 229 208 199 198 214 223 231 246 254 258 257 249
329 326 325 322 316 314 319 318 309 302 296 291 293 292 288 286 276 261 254 249 246 242 232 229 224 219 218 211 201 187 174 178 187 187 188 192 196 199 200 201 202 204 205 209 220 231 235 238 239 236 246 261 269 277 301 324 332 351 351 338 331 327 324 322 320 314 280 266 278 287 326 16 7 23 41 330 313 225 214 204 213 234 248 260 269 269 261 258
339 337 331 322 312 310 315 315 309 303 295 289 290 290 284 282 272 260 254 246 237 229 224 223 219 218 217 206 196 183 172 180 186 182 185 189 194 198 200 202 203 204 207 212 220 229 235 238 238 237 244 252 262 283 308 2 356 348 340 331 328 325 321 320 322 320 289 269 270 287 326 36 320 358 62 263 274 253 243 224 226 240 254 262 267 269 264 262
344 344 338 325 311 307 309 313 312 309 299 288 287 282 276 275 269 262 256 241 227 220 216 216 212 210 212 203 195 183 177 185 186 181 184 185 189 196 198 202 204 204 208 214 219 226 232 235 237 238 240 244 256 282 303 340 337 330 330 327 329 329 327 326 326 322 292 280 269 275 34 103 234 319 45 120 227 231 241 242 238 234 240 252 258 262 265 267
344 344 341 328 313 304 304 312 317 315 304 289 285 276 266 269 267 262 256 241 231 221 213 212 205 199 204 200 191 185 184 188 186 184 186 183 185 192 196 201 203 204 208 212 218 223 228 232 233 230 231 243 270 284 291 308 317 322 326 327 328 331 341 341 329 325 272 280 263 209 94 98 128 325 1 283 205 210 219 231 234 228 228 235 244 250 257 269
341 338 339 332 317 304 303 310 319 317 307 294 287 277 270 271 271 266 256 242 233 221 208 199 197 197 198 192 186 188 187 188 186 184 186 185 184 190 195 199 202 205 207 210 215 221 226 231 227 224 230 247 263 273 287 299 310 319 324 330 333 332 350 7 23 100 107 186 161 157 135 112 121 290 285 246 201 192 183 193 218 232 243 233 231 240 246 254
341 334 335 335 324 310 304 309 320 319 309 302 291 280 278 278 281 279 264 243 230 217 202 192 191 194 192 185 183 183 179 180 182 181 184 186 185 189 193 196 200 204 206 209 213 217 224 225 220 224 239 246 247 266 284 293 305 320 328 334 340 338 2 39 98 103 101 133 142 176 189 149 162 245 261 234 176 161 157 151 136 112 78 58 236 242 245 245
343 332 330 334 329 316 305 308 320 320 311 307 294 280 270 269 277 270 261 248 221 205 198 193 185 185 187 182 178 177 173 173 177 179 182 185 187 190 192 195 198 202 205 208 211 216 222 220 219 229 241 241 247 266 281 295 308 322 334 341 356 22 27 41 92 122 130 160 176 198 195 161 205 256 256 244 219 183 169 157 144 124 109 118 192 241 250 250
344 332 327 333 331 320 308 310 320 321 316 317 302 288 265 250 251 238 239 233 214 197 190 188 179 178 184 181 176 175 171 173 179 179 180 183 187 190 192 194 197 200 204 208 211 215 218 220 224 231 234 238 249 263 280 300 310 325 350 6 32 55 37 26 99 149 152 185 200 217 223 211 232 252 254 250 245 235 216 199 199 161 80 97 80 57 250 235
342 334 326 332 330 321 313 314 320 320 317 319 306 294 275 260 264 244 212 204 210 192 178 182 178 178 182 181 178 176 174 181 186 180 178 181 185 188 192 193 196 199 203 208 211 214 215 216 222 226 229 244 252 256 275 308 323 354 17 21 29 30 33 35 55 171 171 198 204 230 256 247 237 242 257 259 252 246 244 247 251 295 325 317 357 32 38 165
338 336 327 331 331 322 317 315 317 319 317 319 312 302 296 291 297 304 324 196 195 180 176 176 176 180 183 181 181 185 186 189 189 184 181 180 184 188 189 191 196 199 203 207 211 215 214 212 219 223 224 241 253 256 283 335 332 8 28 10 8 15 31 38 31 180 189 209 212 226 264 286 257 234 259 269 261 256 265 283 298 309 308 319 352 14 28 40
334 339 329 330 333 324 317 318 318 315 311 315 311 306 318 301 333 354 1 74 147 163 171 172 174 178 180 181 184 190 194 191 187 187 182 178 183 189 188 192 196 197 202 207 211 218 216 212 219 220 210 223 244 256 336 357 329 336 1 345 349 4 17 24 18 184 204 226 216 219 226 283 305 256 258 280 282 278 288 309 317 327 332 339 355 11 26 20
331 340 332 329 333 324 311 316 319 308 303 315 312 314 333 173 55 52 86 89 128 155 167 175 180 178 176 180 179 177 186 188 186 183 177 176 182 187 190 195 196 195 199 204 210 217 215 205 207 209 213 234 246 265 339 351 332 344 343 325 331 348 358 359 354 343 251 267 240 224 222 253 297 288 269 286 298 308 323 336 332 346 3 1 24 34 24 1
329 338 334 329 331 325 304 311 316 303 302 320 329 337 130 104 66 81 98 79 124 156 170 176 182 184 180 180 177 173 178 182 184 179 171 175 183 187 193 195 194 194 197 202 207 209 205 199 204 219 231 240 251 312 326 314 331 359 316 304 312 325 338 337 332 325 275 261 263 240 219 232 288 288 279 296 313 329 339 345 330 334 5 354 75 82 53 33
328 336 336 329 329 327 305 311 316 305 310 329 343 72 111 85 67 81 68 87 126 137 159 168 180 191 186 180 178 180 175 175 183 178 171 179 185 184 192 192 186 187 195 205 207 203 200 201 207 217 220 215 209 343 309 278 333 351 283 285 295 306 313 316 318 312 248 243 282 255 213 214 293 292 306 349 353 359 6 10 349 303 237 214 207 184 164 171
327 333 334 331 330 328 314 317 319 310 326 3 45 101 95 76 57 357 41 116 133 138 157 168 182 188 184 181 177 170 165 167 177 177 173 179 183 180 183 183 176 179 193 207 210 204 198 201 202 196 196 190 165 184 216 231 292 307 294 280 279 295 298 299 296 237 211 237 324 287 208 205 297 0 40 24 12 20 32 29 33 73 183 193 199 197 192 196
327 330 331 335 333 327 324 328 324 322 9 76 101 116 102 73 46 10 83 119 126 156 165 171 178 178 178 180 174 163 161 159 163 177 178 177 180 180 177 178 177 179 197 213 214 211 205 199 194 190 191 185 182 194 201 238 271 287 293 276 278 305 303 293 220 183 189 271 349 342 198 198 224 305 30 44 41 33 30 23 41 97 157 174 180 182 185 198
326 327 328 336 335 328 333 343 342 5 82 108 118 116 109 77 48 37 72 106 83 163 170 172 169 169 171 173 169 161 162 162 163 179 184 179 180 181 177 179 180 180 202 212 211 217 212 200 192 194 200 193 196 219 234 256 270 275 279 271 300 349 16 9 263 197 229 35 18 17 175 192 239 259 273 186 119 50 42 29 34 105 153 169 175 175 183 200
324 325 325 335 338 335 339 353 38 91 115 122 119 102 87 79 57 46 50 54 75 144 166 164 158 161 164 165 164 162 168 175 176 183 188 184 182 184 180 178 180 182 200 199 197 210 207 200 198 201 206 201 205 223 235 250 257 257 265 266 299 37 54 345 309 328 323 105 58 62 169 198 257 246 232 217 93 53 47 40 28 62 146 166 172 171 182 200
321 323 324 332 337 343 350 9 103 133 136 128 115 96 79 74 67 54 50 67 103 136 162 158 152 159 164 165 166 168 175 183 184 185 189 190 190 190 188 181 182 189 186 181 188 194 190 197 201 203 211 215 215 224 236 249 256 252 250 254 258 101 84 184 245 310 290 238 126 146 183 232 238 213 222 219 87 52 49 48 39 38 109 157 164 169 180 189
317 321 323 331 337 349 13 47 141 145 138 127 109 87 75 68 58 47 49 83 116 137 164 161 158 164 170 175 176 177 182 185 183 184 186 192 196 196 194 187 185 191 190 177 177 178 186 199 203 207 218 228 230 237 243 241 247 251 239 241 266 337 90 108 168 279 255 244 244 214 251 262 226 224 233 214 55 43 53 53 58 65 92 135 147 157 160 156
312 317 322 332 342 4 43 116 168 146 136 132 116 88 73 62 54 45 50 93 121 143 166 165 168 175 178 181 182 181 182 181 181 183 183 190 200 204 201 196 193 193 189 174 156 167 191 199 205 217 226 233 237 242 243 238 238 245 239 237 242 256 317 84 85 298 204 115 265 248 275 271 224 237 236 224 347 53 72 66 75 80 92 116 120 121 119 118
307 313 321 330 347 26 66 212 182 153 145 141 126 96 71 60 57 54 65 101 122 147 162 169 179 183 184 187 186 181 177 177 182 186 187 192 204 208 204 203 201 192 182 172 148 156 190 195 205 231 237 238 241 239 237 237 237 245 248 242 242 252 269 221 121 48 63 71 270 258 277 267 222 229 240 235 281 92 91 83 87 85 91 103 102 103 108 109
298 306 316 323 342 46 94 217 189 161 152 143 125 97 73 64 64 64 77 103 127 139 137 157 180 184 188 193 193 188 185 182 184 192 197 200 209 206 201 203 201 191 186 188 185 173 201 217 281 275 236 223 225 223 218 220 226 245 261 244 241 241 200 169 153 107 105 60 291 271 274 261 237 228 71 127 133 110 104 97 96 91 89 94 98 101 103 104
291 295 300 309 332 105 121 156 184 164 155 150 137 101 79 71 69 70 80 96 125 139 123 136 174 187 196 199 199 199 200 195 191 198 202 203 213 206 200 201 200 194 192 198 204 208 233 261 321 7 142 172 183 191 197 204 210 225 245 238 232 220 176 168 179 176 146 155 256 284 292 269 235 206 92 106 129 120 111 101 103 102 96 95 96 97 97 92
282 282 283 286 302 149 148 145 178 169 163 161 147 108 88 79 77 80 86 90 100 124 128 134 177 198 205 207 210 208 208 209 206 208 205 202 208 204 200 201 201 198 195 202 212 215 219 247 311 65 119 145 172 188 196 209 215 222 233 233 227 220 207 173 216 275 188 168 156 147 290 284 214 160 129 129 135 130 123 117 119 111 102 99 95 93 90 79
269 266 269 270 267 188 181 189 181 174 170 168 153 120 96 86 88 90 92 91 82 85 101 98 90 131 174 203 212 211 214 217 217 220 217 208 198 188 192 196 198 197 197 203 208 205 209 241 314 65 122 124 162 195 202 211 223 234 239 239 238 225 202 122 178 249 225 212 175 154 258 287 155 151 152 147 146 147 147 154 147 117 105 102 94 90 84 73
261 250 252 261 259 226 200 193 186 174 169 169 160 130 102 95 100 101 98 96 85 74 77 75 74 85 93 164 192 204 215 219 221 224 221 213 192 163 171 182 183 185 191 196 199 199 210 235 285 23 102 96 322 227 222 214 215 231 240 247 249 225 202 173 178 196 196 218 215 196 278 265 161 161 154 148 153 161 167 175 165 124 107 99 89 82 74 66
253 233 239 258 257 237 208 190 185 175 168 167 159 132 113 107 110 109 105 107 102 80 68 70 72 67 54 98 170 194 208 213 219 221 220 219 203 174 171 182 180 176 182 191 194 193 203 222 244 14 110 121 110 140 170 177 192 220 243 251 246 230 221 213 208 197 189 209 203 186 259 209 174 172 159 151 156 169 183 187 167 118 94 88 83 73 59 48
251 227 231 248 238 224 204 186 185 180 168 159 150 138 131 123 117 115 109 111 111 92 73 74 70 57 46 48 139 177 187 193 208 218 222 227 220 204 189 185 181 177 178 184 188 188 194 204 208 166 120 123 96 93 106 108 118 152 147 219 226 223 213 205 211 202 190 206 202 188 237 241 197 184 170 159 163 175 188 187 165 137 98 83 74 57 41 28
253 226 218 223 215 208 195 182 184 181 166 155 152 154 145 135 127 121 117 111 100 82 75 75 68 57 41 35 95 145 155 171 188 199 207 226 231 206 180 176 173 173 175 176 180 188 195 195 198 210 161 146 131 83 92 89 94 92 73 90 188 216 208 178 193 202 200 202 200 200 244 269 211 192 183 174 175 184 196 195 186 187 136 78 61 44 30 21
252 227 212 207 205 204 191 178 179 176 163 155 158 163 158 147 135 127 127 125 105 78 76 79 69 61 45 46 113 135 133 156 185 180 186 219 216 171 162 167 166 166 173 173 168 179 189 186 193 202 153 132 119 98 89 82 89 88 79 93 128 180 197 166 173 186 187 185 196 222 271 280 215 202 200 187 182 190 204 211 223 243 47 50 47 39 28 22
246 225 212 203 203 209 194 175 175 171 160 157 161 162 160 154 145 140 139 143 137 107 91 93 80 72 62 60 110 132 131 150 177 168 164 170 164 155 156 162 163 156 163 164 157 166 170 154 148 146 128 117 104 91 91 95 97 92 86 90 86 76 93 164 180 164 133 186 208 254 281 259 223 220 217 200 191 194 203 222 250 229 60 48 45 40 31 24
243 224 212 202 200 208 195 179 176 170 159 158 161 159 157 154 151 150 145 145 159 137 98 100 101 80 63 57 109 135 137 142 143 140 142 141 140 145 150 156 159 154 156 156 151 156 154 136 129 128 119 113 108 103 105 103 94 85 80 78 72 69 79 115 166 160 166 215 237 252 255 248 239 238 233 217 203 198 200 223 225 124 68 56 54 46 37 30
243 225 214 205 203 205 195 186 181 171 161 159 159 155 152 151 150 145 139 142 150 136 112 107 110 93 66 53 123 142 136 135 133 132 136 138 137 141 145 151 154 151 155 158 151 150 142 124 121 123 116 113 115 113 111 107 95 82 74 70 68 67 70 88 131 155 184 219 239 235 231 233 233 236 238 229 212 199 198 213 199 132 74 67 62 50 42 39
244 229 217 208 206 206 200 193 187 179 170 161 155 151 141 139 140 132 131 137 131 117 113 106 102 99 77 57 140 146 134 131 135 135 137 141 143 146 147 151 152 151 162 168 158 154 141 124 120 122 116 114 117 113 108 107 101 87 75 68 67 69 73 98 127 156 211 216 256 245 218 204 200 211 225 223 207 194 197 206 192 142 85 76 60 44 39 39
245 234 223 212 206 205 203 200 195 188 180 169 158 152 139 131 129 122 122 132 130 120 119 112 104 103 95 94 132 136 128 128 133 137 142 147 149 150 149 150 155 158 170 178 170 164 152 133 125 122 115 117 122 118 111 108 100 85 74 66 61 59 55 56 75 159 239 305 327 253 213 193 187 200 214 194 180 182 194 199 184 146 89 60 41 30 31 34
246 237 227 216 207 204 205 205 203 198 189 177 165 159 148 134 127 124 123 128 134 134 133 128 119 114 112 117 125 123 121 124 127 131 141 147 146 147 147 151 162 165 171 183 181 176 173 157 143 130 120 128 140 137 119 107 82 57 63 63 57 49 39 30 44 106 239 289 316 246 217 199 191 202 200 166 164 171 180 182 174 150 49 37 30 26 26 20